[[{"header":{"parameterUnit":"m.s-1","parameterCategory":1,"la1":30.2991,"la2":30.254,"lo1":-89.0895,"lo2":-89.0444,"dy":0.0017,"dx":0.0017,"nx":28,"ny":28,"refTime":"2025-12-29T03:00:00:Z","depth":0,"parameterNumber":2,"parameterNumberName":"U-component_of_WINDS"},"data":[0,0,0,0,0,0,0,0,0,0,0,0,0,0,0,0,0,0,0,0,0,0,0,0,0,0,0,0,0,0,0,0,0,0,0,0,0,0,0,0,0,0,0,0,0,0,0,0,0,0,0,0,0,0,0,0,0,0,-1.3163,-1.3163,0,-1.3163,-1.3163,-1.3163,-1.3142,-1.3142,-1.3141,-1.3141,-1.3141,-1.3141,-1.3142,0,0,0,0,0,0,0,0,0,0,0,0,0,-1.3146,-1.3146,-1.3163,-1.3163,-1.3163,-1.3163,-1.3163,-1.3163,-1.3142,-1.3142,-1.3141,-1.3141,-1.314,-1.3141,-1.3142,0,0,0,0,0,0,0,0,0,0,0,0,0,-1.315,-1.3146,-1.3163,-1.3153,-1.3152,-1.3163,-1.3163,-1.3163,-1.3143,-1.3142,-1.3141,-1.314,-1.314,-1.3141,-1.3142,-1.3162,0,0,-1.3144,-1.3144,0,0,0,0,0,0,0,0,-1.315,-1.3151,-1.3154,-1.3153,-1.3152,-1.3152,-1.3157,-1.3163,-1.3143,-1.3146,-1.3141,-1.314,-1.3145,-1.3145,-1.3147,-1.3162,-1.3162,-1.3144,-1.3144,-1.3145,-1.3145,0,0,0,0,0,0,0,-1.315,-1.3151,-1.3163,-1.3154,-1.3153,-1.3148,-1.3148,-1.3158,-1.315,-1.3146,-1.3144,-1.3145,-1.3144,-1.3146,-1.3147,-1.3162,-1.3144,-1.3145,-1.3145,-1.3145,-1.3195,-1.3196,0,0,0,0,0,0,-1.3151,-1.3151,-1.3163,-1.3163,-1.3149,-1.3149,-1.3149,-1.3153,-1.315,-1.3149,-1.3145,-1.3144,-1.3145,-1.3146,-1.3147,-1.317,-1.3145,-1.3145,-1.3146,-1.3194,-1.3195,-1.3196,0,0,0,0,0,0,-1.315,-1.3152,-1.3163,-1.3156,-1.3157,-1.315,-1.3155,-1.3153,-1.3155,-1.3149,-1.3148,-1.3149,-1.3145,-1.3146,-1.3159,-1.317,-1.3146,-1.3146,-1.3193,-1.3194,-1.3196,-1.3218,0,0,0,0,0,0,-1.315,-1.3152,-1.3159,-1.3157,-1.3158,-1.3175,-1.3156,-1.3154,-1.3157,-1.3154,-1.3152,-1.3151,-1.3144,-1.3158,-1.3159,-1.3171,-1.3147,-1.3192,-1.3194,-1.3195,-1.3216,-1.322,-1.3223,0,0,0,0,0,-1.3149,-1.3166,-1.316,-1.3162,-1.3167,-1.3175,-1.3176,-1.3168,-1.3158,-1.3165,-1.3162,-1.3151,-1.3169,-1.3159,-1.3161,-1.3173,-1.3191,-1.3193,-1.3195,-1.3215,-1.3219,-1.3223,0,0,0,0,0,0,-1.317,-1.3165,-1.3159,-1.3175,-1.3176,-1.3172,-1.3181,-1.3173,-1.3176,-1.3174,-1.3164,-1.3164,-1.3178,-1.3177,-1.3166,-1.3193,-1.3178,-1.3181,-1.3193,-1.3197,-1.32,-1.32,-1.3148,0,0,0,0,0,-1.3176,-1.3183,-1.3179,-1.3193,-1.3194,-1.3188,-1.3191,-1.3185,-1.3185,-1.3185,-1.3183,-1.3184,-1.3189,-1.3193,-1.3198,-1.3217,-1.3216,-1.3226,-1.3229,-1.3232,-1.3234,-1.3243,-1.3247,-1.3202,-1.3202,-1.3202,0,0,-1.3189,-1.3188,-1.3193,-1.3197,-1.3197,-1.3205,-1.3188,-1.3197,-1.3202,-1.3187,-1.3198,-1.3197,-1.3197,-1.3213,-1.322,-1.3212,-1.3246,-1.3234,-1.3237,-1.3237,-1.3245,-1.325,-1.3253,-1.3204,-1.3204,-1.3203,0,0,-1.3216,-1.3216,-1.3228,-1.3229,-1.3229,-1.3225,-1.3228,-1.3226,-1.3224,-1.3236,-1.3225,-1.3232,-1.3242,-1.3242,-1.3244,-1.3273,-1.3264,-1.3276,-1.3293,-1.3302,-1.3306,-1.3309,-1.3318,-1.3322,-1.3278,-1.3278,-1.3278,0,-1.3232,-1.3243,-1.3235,-1.3245,-1.3247,-1.3235,-1.3246,-1.3248,-1.325,-1.3252,-1.3244,-1.3256,-1.3256,-1.3271,-1.3279,-1.3281,-1.3284,-1.3275,-1.3306,-1.3309,-1.3312,-1.3321,-1.3325,-1.3279,-1.3279,-1.3279,-1.3279,0,-1.3263,-1.3271,-1.328,-1.3283,-1.3286,-1.3297,-1.3291,-1.3296,-1.329,-1.3287,-1.3299,-1.3298,-1.3303,-1.3307,-1.3301,-1.3322,-1.3317,-1.3308,-1.3293,-1.3317,-1.3326,-1.3329,-1.3281,-1.328,-1.328,-1.328,0,0,-1.3301,-1.33,-1.3303,-1.3304,-1.3305,-1.3311,-1.3321,-1.3326,-1.333,-1.3333,-1.3341,-1.3351,-1.3342,-1.3344,-1.3339,-1.3347,-1.337,-1.3337,-1.3337,-1.3342,-1.3392,-1.3398,-1.3402,-1.3364,-1.3365,-1.3365,-1.3391,0,-1.3326,-1.3344,-1.3338,-1.3356,-1.3363,-1.3352,-1.3361,-1.3362,-1.336,-1.3366,-1.3363,-1.337,-1.3359,-1.336,-1.3368,-1.3365,-1.3379,-1.3363,-1.3371,-1.3371,-1.337,-1.3406,-1.3412,-1.3437,-1.3395,-1.3395,-1.3396,0,-1.3358,-1.3362,-1.3381,-1.338,-1.3383,-1.3392,-1.3396,-1.3402,-1.3403,-1.3401,-1.3404,-1.3397,-1.3407,-1.3394,-1.3408,-1.3397,-1.34,-1.34,-1.34,-1.3399,-1.3384,-1.3405,-1.3445,-1.3448,-1.3401,-1.3401,-1.34,0,-1.3383,-1.3393,-1.3406,-1.3407,-1.3407,-1.3413,-1.3414,-1.3415,-1.3418,-1.3422,-1.3424,-1.3429,-1.3432,-1.3436,-1.343,-1.3421,-1.3445,-1.3431,-1.3443,-1.3443,-1.3447,-1.3447,-1.3486,-1.3452,-1.3452,-1.3452,-1.3451,0,-1.3412,-1.3423,-1.3417,-1.3425,-1.3437,-1.3431,-1.3444,-1.3443,-1.3444,-1.3451,-1.3442,-1.3449,-1.3442,-1.3449,-1.3445,-1.3457,-1.3458,-1.3456,-1.3455,-1.3456,-1.3456,-1.3457,-1.3455,-1.3452,-1.3452,-1.3452,-1.3452,0,-1.3441,-1.3437,-1.345,-1.3449,-1.345,-1.3459,-1.3458,-1.3465,-1.3463,-1.3472,-1.3474,-1.3471,-1.3478,-1.3473,-1.348,-1.3478,-1.3493,-1.349,-1.3492,-1.3491,-1.3503,-1.3501,-1.3543,-1.3548,-1.3511,-1.3512,-1.3512,0,-1.3458,-1.3467,-1.3468,-1.3472,-1.3473,-1.348,-1.3484,-1.3478,-1.3483,-1.3486,-1.3492,-1.3499,-1.3503,-1.3515,-1.3513,-1.3519,-1.3515,-1.3529,-1.3515,-1.3517,-1.3514,-1.3513,-1.3513,-1.3531,-1.3532,-1.3532,-1.3532,0,-1.349,-1.3488,-1.3494,-1.3499,-1.3504,-1.3508,-1.3511,-1.3515,-1.351,-1.3515,-1.3522,-1.3526,-1.3534,-1.354,-1.3545,-1.3545,-1.3538,-1.3537,-1.354,-1.3541,-1.3541,-1.354,-1.3498,-1.3536,-1.3535,-1.3535,-1.3535,-1.3535,-1.3513,-1.352,-1.3522,-1.3529,-1.3531,-1.3534,-1.3541,-1.354,-1.3546,-1.3552,-1.3548,-1.3557,-1.3559,-1.3565,-1.3566,-1.3573,-1.3567,-1.3571,-1.3572,-1.3573,-1.3574,-1.3542,-1.3574,-1.3574,-1.3574,-1.3573,-1.3573,0,-1.3543,-1.3544,-1.3551,-1.3556,-1.3561,-1.3555,-1.3558,-1.3563,-1.3571,-1.3573,-1.3579,-1.3587,-1.3594,-1.3593,-1.3598,-1.3604,-1.3601,-1.3605,-1.3604,-1.3604,-1.3579,-1.3576,-1.3608,-1.3608,-1.3608,-1.3608,-1.3608,-1.3608,-1.356,-1.3572,-1.357,-1.3583,-1.3584,-1.3592,-1.3595,-1.3598,-1.36,-1.361,-1.3615,-1.3615,-1.3616,-1.3622,-1.3628,-1.3627,-1.3629,-1.3635,-1.3633,-1.361,-1.3606,-1.3603,-1.3599,-1.3636,-1.3636,-1.3657,-1.3658,-1.3658]},{"header":{"parameterUnit":"m.s-1","parameterCategory":1,"la1":30.2991,"la2":30.254,"lo1":-89.0895,"lo2":-89.0444,"dy":0.0017,"dx":0.0017,"nx":28,"ny":28,"refTime":"2025-12-29T03:00:00:Z","depth":0,"parameterNumber":3,"parameterNumberName":"V-component_of_WINDS"},"data":[0,0,0,0,0,0,0,0,0,0,0,0,0,0,0,0,0,0,0,0,0,0,0,0,0,0,0,0,0,0,0,0,0,0,0,0,0,0,0,0,0,0,0,0,0,0,0,0,0,0,0,0,0,0,0,0,0,0,2.5543,2.5542,0,2.5511,2.551,2.551,2.549,2.549,2.549,2.549,2.5454,2.5454,2.5453,0,0,0,0,0,0,0,0,0,0,0,0,0,2.5585,2.5584,2.5543,2.5542,2.5542,2.5511,2.551,2.551,2.549,2.549,2.549,2.549,2.5455,2.5454,2.5453,0,0,0,0,0,0,0,0,0,0,0,0,0,2.5561,2.5584,2.5543,2.5528,2.5527,2.5511,2.551,2.551,2.549,2.549,2.549,2.549,2.5455,2.5454,2.5453,2.5447,0,0,2.5449,2.5448,0,0,0,0,0,0,0,0,2.5563,2.556,2.5531,2.5529,2.5527,2.5504,2.5512,2.5489,2.549,2.5504,2.549,2.549,2.5471,2.5468,2.5463,2.5446,2.5444,2.5448,2.5448,2.5447,2.5447,0,0,0,0,0,0,0,2.5564,2.5561,2.553,2.553,2.5528,2.5523,2.5519,2.5508,2.5489,2.5503,2.5501,2.5498,2.547,2.5464,2.5462,2.5444,2.5449,2.5447,2.5447,2.5446,2.5423,2.5423,0,0,0,0,0,0,2.5569,2.5562,2.5531,2.5529,2.5545,2.5522,2.5518,2.5512,2.5489,2.5485,2.5498,2.5497,2.5466,2.5463,2.546,2.5454,2.5447,2.5446,2.5445,2.5423,2.5423,2.5423,0,0,0,0,0,0,2.557,2.5566,2.5532,2.5545,2.5541,2.5522,2.5515,2.5511,2.5505,2.5485,2.5481,2.5495,2.5466,2.5462,2.5451,2.5453,2.5445,2.5444,2.5423,2.5423,2.5423,2.5441,0,0,0,0,0,0,2.5571,2.5566,2.5564,2.5545,2.554,2.5524,2.5515,2.5511,2.5503,2.5502,2.5482,2.5478,2.5465,2.5453,2.545,2.5451,2.5443,2.5423,2.5423,2.5423,2.544,2.5442,2.5443,0,0,0,0,0,2.5572,2.557,2.5564,2.5561,2.5537,2.5524,2.5521,2.5507,2.5504,2.5501,2.5489,2.5479,2.5453,2.5453,2.5449,2.5449,2.5422,2.5423,2.5423,2.544,2.5441,2.5443,0,0,0,0,0,0,2.5588,2.5567,2.5561,2.5552,2.554,2.5521,2.5518,2.551,2.5498,2.5497,2.5479,2.5475,2.5466,2.5456,2.5456,2.5444,2.5437,2.5436,2.545,2.5452,2.5454,2.5456,2.5442,0,0,0,0,0,2.559,2.5582,2.5564,2.5558,2.5553,2.5537,2.553,2.5521,2.5508,2.5502,2.5489,2.5476,2.5465,2.5458,2.5447,2.5439,2.5435,2.5437,2.5439,2.544,2.544,2.5436,2.5438,2.5425,2.5425,2.5425,0,0,2.5595,2.5583,2.5578,2.5561,2.5551,2.5543,2.5532,2.5523,2.5517,2.55,2.549,2.548,2.5464,2.5456,2.5451,2.5447,2.5443,2.544,2.5442,2.5441,2.5437,2.5438,2.5439,2.5425,2.5425,2.5425,0,0,2.56,2.5589,2.5584,2.5575,2.556,2.555,2.5548,2.5531,2.5524,2.5514,2.5502,2.5494,2.5475,2.5465,2.5457,2.5461,2.5451,2.5457,2.5465,2.5462,2.5463,2.5464,2.5466,2.5467,2.5457,2.5457,2.5457,0,2.5607,2.5595,2.5582,2.5575,2.5568,2.5554,2.5548,2.554,2.5522,2.5517,2.5513,2.5491,2.5479,2.5469,2.547,2.5464,2.5462,2.5459,2.5464,2.5465,2.5465,2.5467,2.5468,2.5458,2.5458,2.5458,2.5458,0,2.5605,2.5597,2.5594,2.5579,2.5572,2.5565,2.5552,2.5546,2.5538,2.5528,2.5518,2.5504,2.5491,2.5487,2.5478,2.5476,2.5474,2.5467,2.546,2.5468,2.5469,2.547,2.5459,2.5459,2.5459,2.5459,0,0,2.5617,2.5597,2.5596,2.559,2.5574,2.5567,2.556,2.5548,2.5544,2.5533,2.5527,2.5513,2.5507,2.5498,2.5488,2.5486,2.5491,2.5479,2.5479,2.5483,2.5489,2.5495,2.5495,2.5485,2.5485,2.5485,2.5491,0,2.5619,2.5608,2.5597,2.5589,2.5582,2.557,2.5564,2.5554,2.5545,2.5538,2.5527,2.5518,2.551,2.5506,2.5502,2.5491,2.5492,2.549,2.548,2.5479,2.5484,2.5496,2.5501,2.5507,2.5491,2.5491,2.5491,0,2.562,2.5612,2.5604,2.559,2.5587,2.5582,2.5571,2.5564,2.5553,2.5546,2.5538,2.5528,2.5521,2.5515,2.5505,2.5505,2.55,2.5494,2.5494,2.5492,2.5486,2.5495,2.5508,2.5509,2.5492,2.5492,2.5492,0,2.5631,2.5617,2.5611,2.5605,2.5589,2.5587,2.558,2.5568,2.5562,2.5553,2.5549,2.5538,2.5532,2.5525,2.5512,2.5509,2.5504,2.5497,2.5499,2.55,2.5498,2.5499,2.5511,2.5495,2.5495,2.5495,2.5495,0,2.5635,2.563,2.5615,2.5612,2.5607,2.5595,2.559,2.5582,2.5572,2.5567,2.5555,2.555,2.5534,2.5528,2.5518,2.5512,2.5509,2.5504,2.5502,2.5505,2.5506,2.5502,2.5501,2.5495,2.5495,2.5495,2.5495,0,2.5645,2.5635,2.5628,2.5614,2.561,2.5608,2.5596,2.5592,2.5583,2.5576,2.5574,2.556,2.5552,2.5539,2.5526,2.552,2.5516,2.5512,2.552,2.5519,2.5522,2.5522,2.5533,2.5534,2.5516,2.5517,2.5517,0,2.5648,2.5645,2.5632,2.5628,2.5622,2.5616,2.5611,2.5599,2.5594,2.5582,2.558,2.5571,2.5563,2.555,2.5539,2.553,2.5525,2.553,2.5524,2.5528,2.5526,2.5527,2.5527,2.5531,2.5531,2.5531,2.5531,0,2.5655,2.5651,2.5645,2.5637,2.5631,2.5624,2.5616,2.5614,2.5601,2.5596,2.5588,2.5582,2.5571,2.5562,2.5552,2.5544,2.5536,2.5534,2.5534,2.5538,2.5543,2.5541,2.5525,2.5533,2.5533,2.5533,2.5533,2.5533,2.5663,2.566,2.5651,2.5645,2.5638,2.5632,2.5628,2.562,2.5614,2.5604,2.5598,2.5591,2.5581,2.5566,2.5559,2.5554,2.555,2.555,2.555,2.555,2.5552,2.5544,2.5552,2.5552,2.5552,2.5552,2.5551,0,2.567,2.5664,2.5658,2.5649,2.5644,2.5639,2.563,2.5627,2.5621,2.5613,2.5606,2.5598,2.5591,2.558,2.5571,2.5569,2.5565,2.5567,2.5568,2.5566,2.5555,2.5557,2.5571,2.5571,2.5571,2.5571,2.5571,2.5571,2.5673,2.5669,2.5664,2.5657,2.5651,2.5645,2.5641,2.5635,2.5629,2.5621,2.5615,2.5609,2.56,2.5591,2.5584,2.5581,2.5579,2.5583,2.5578,2.5569,2.5567,2.5565,2.5566,2.5582,2.5582,2.559,2.559,2.559]}]]